| time (UTC) | temp F | wind direction | speed MPH | gust MPH | rain 1hr in | rain 24hr in | rain mn in | humidity % | barometer mb |
| 20260906031539 | 64 | 267 | 4.0 | 11.0 | 0.00 | 0.09 | 0.01 | 64 | 1015.7 |
| 20260906030036 | 65 | 244 | 2.0 | 8.0 | 0.00 | 0.09 | 0.01 | 64 | 1015.6 |
| 20260906024530 | 65 | 240 | 2.0 | 8.0 | 0.00 | 0.09 | 0.01 | 63 | 1015.6 |
| 20260906023028 | 64 | 171 | 1.0 | 9.0 | 0.00 | 0.09 | 0.01 | 66 | 1015.6 |
| 20260906021527 | 64 | 272 | 3.0 | 7.0 | 0.00 | 0.09 | 0.01 | 66 | 1015.6 |
| 20260906020024 | 64 | 275 | 3.0 | 7.0 | 0.00 | 0.09 | 0.01 | 67 | 1015.7 |
| 20260906014623 | 63 | 288 | 2.0 | 9.0 | 0.00 | 0.10 | 0.01 | 68 | 1015.8 |
| 20260906013024 | 63 | 282 | 2.0 | 6.0 | 0.00 | 0.10 | 0.01 | 69 | 1015.7 |
| 20260906011519 | 63 | 275 | 2.0 | 7.0 | 0.00 | 0.10 | 0.01 | 69 | 1015.7 |
| 20260906010035 | 62 | 306 | 0.0 | 4.0 | 0.00 | 0.10 | 0.01 | 71 | 1015.7 |
| 20260906004514 | 62 | 267 | 0.0 | 0.0 | 0.00 | 0.12 | 0.01 | 71 | 1015.7 |
| 20260906003010 | 62 | 136 | 0.0 | 0.0 | 0.00 | 0.12 | 0.01 | 69 | 1015.5 |
| 20260906001506 | 61 | 254 | 0.0 | 0.0 | 0.00 | 0.12 | 0.01 | 73 | 1015.4 |
| 20260906000002 | 60 | 293 | 0.0 | 0.0 | 0.00 | 0.24 | 0.01 | 76 | 1015.3 |
| 20260905234602 | 60 | 66 | 0.0 | 0.0 | 0.00 | 0.24 | 0.01 | 79 | 1015.1 |
| 20260905233053 | 59 | 218 | 0.0 | 0.0 | 0.00 | 0.24 | 0.01 | 80 | 1015.0 |
| 20260905231551 | 58 | 360 | 0.0 | 0.0 | 0.00 | 0.24 | 0.01 | 86 | 1015.0 |
| 20260905230049 | 56 | 133 | 0.0 | 0.0 | 0.00 | 0.24 | 0.01 | 92 | 1015.0 |
| 20260905224545 | 55 | 133 | 0.0 | 0.0 | 0.00 | 0.28 | 0.01 | 96 | 1014.8 |
| 20260905223041 | 53 | 133 | 0.0 | 0.0 | 0.00 | 0.28 | 0.01 | 96 | 1014.5 |
| 20260905221535 | 50 | 133 | 0.0 | 0.0 | 0.00 | 0.28 | 0.01 | 96 | 1014.5 |
| 20260905220028 | 48 | 132 | 0.0 | 0.0 | 0.00 | 0.28 | 0.01 | 95 | 1014.1 |
| 20260905214522 | 46 | 132 | 0.0 | 0.0 | 0.00 | 0.35 | 0.01 | 95 | 1013.7 |
| 20260905213020 | 44 | 132 | 0.0 | 0.0 | 0.00 | 0.35 | 0.01 | 95 | 1013.5 |
| 20260905211533 | 43 | 132 | 0.0 | 0.0 | 0.00 | 0.35 | 0.01 | 95 | 1012.9 |
| 20260905210012 | 42 | 132 | 0.0 | 0.0 | 0.00 | 0.35 | 0.01 | 94 | 1012.4 |
| 20260905204506 | 43 | 132 | 0.0 | 0.0 | 0.00 | 0.50 | 0.01 | 95 | 1012.0 |
| 20260905203003 | 43 | 132 | 0.0 | 0.0 | 0.00 | 0.50 | 0.01 | 95 | 1011.5 |
| 20260905201504 | 43 | 132 | 0.0 | 0.0 | 0.00 | 0.50 | 0.01 | 95 | 1011.3 |
| 20260905200100 | 43 | 132 | 0.0 | 0.0 | 0.00 | 0.50 | 0.01 | 95 | 1011.0 |
| 20260905194557 | 44 | 132 | 0.0 | 0.0 | 0.00 | 0.66 | 0.01 | 95 | 1010.5 |
| 20260905193055 | 44 | 132 | 0.0 | 0.0 | 0.00 | 0.66 | 0.01 | 95 | 1010.5 |
| 20260905191553 | 44 | 132 | 0.0 | 0.0 | 0.00 | 0.66 | 0.01 | 95 | 1010.3 |
| 20260905190054 | 43 | 132 | 0.0 | 0.0 | 0.00 | 0.66 | 0.01 | 95 | 1010.0 |
| 20260905184549 | 42 | 132 | 0.0 | 0.0 | 0.01 | 0.80 | 0.01 | 95 | 1009.4 |
| 20260905183106 | 42 | 132 | 0.0 | 0.0 | 0.01 | 0.80 | 0.01 | 95 | 1009.1 |
| 20260905181543 | 41 | 132 | 0.0 | 0.0 | 0.01 | 0.80 | 0.01 | 94 | 1008.8 |
| 20260905180049 | 42 | 132 | 0.0 | 0.0 | 0.01 | 0.80 | 0.01 | 94 | 1008.3 |
| 20260905174538 | 42 | 132 | 0.0 | 0.0 | 0.00 | 0.83 | 0.00 | 94 | 1007.9 |
| 20260905173032 | 42 | 132 | 0.0 | 0.0 | 0.00 | 0.83 | 0.00 | 94 | 1007.3 |
| 20260905171532 | 43 | 132 | 0.0 | 0.0 | 0.00 | 0.83 | 0.00 | 94 | 1007.0 |
| 20260905170028 | 43 | 132 | 0.0 | 0.0 | 0.00 | 0.83 | 0.00 | 94 | 1006.5 |
| 20260905164524 | 43 | 132 | 0.0 | 0.0 | 0.00 | 0.86 | 0.00 | 94 | 1005.7 |
| 20260905163025 | 43 | 132 | 0.0 | 0.0 | 0.00 | 0.86 | 0.00 | 94 | 1005.6 |
| 20260905161523 | 44 | 132 | 0.0 | 0.0 | 0.00 | 0.86 | 0.00 | 94 | 1005.4 |
| 20260905160017 | 44 | 132 | 0.0 | 0.0 | 0.00 | 0.86 | 0.00 | 94 | 1005.1 |
| 20260905154513 | 44 | 132 | 0.0 | 0.0 | 0.00 | 0.86 | 0.00 | 94 | 1004.5 |
| 20260905153017 | 45 | 132 | 0.0 | 0.0 | 0.00 | 0.86 | 0.00 | 94 | 1004.2 |
| 20260905151506 | 45 | 132 | 0.0 | 0.0 | 0.00 | 0.86 | 0.00 | 94 | 1003.6 |
| 20260905150014 | 45 | 132 | 0.0 | 0.0 | 0.00 | 0.86 | 0.00 | 94 | 1003.0 |
| 20260905144559 | 46 | 132 | 0.0 | 0.0 | 0.00 | 0.86 | 0.00 | 94 | 1002.2 |
| 20260905143057 | 46 | 132 | 0.0 | 0.0 | 0.00 | 0.86 | 0.00 | 94 | 1001.7 |
| 20260905141554 | 47 | 132 | 0.0 | 0.0 | 0.00 | 0.86 | 0.00 | 94 | 1001.3 |
| 20260905140051 | 47 | 132 | 0.0 | 0.0 | 0.00 | 0.86 | 0.00 | 94 | 1001.3 |
| 20260905134552 | 46 | 132 | 0.0 | 0.0 | 0.00 | 0.88 | 0.86 | 94 | 1001.1 |
| 20260905133048 | 46 | 132 | 0.0 | 0.0 | 0.00 | 0.88 | 0.86 | 94 | 1000.7 |
| 20260905131548 | 46 | 132 | 0.0 | 0.0 | 0.00 | 0.88 | 0.86 | 94 | 1000.3 |
| 20260905130046 | 46 | 132 | 0.0 | 0.0 | 0.00 | 0.88 | 0.86 | 93 | 1000.1 |
| 20260905124545 | 47 | 132 | 0.0 | 0.0 | 0.00 | 0.88 | 0.86 | 93 | 999.9 |
| 20260905123043 | 47 | 132 | 0.0 | 0.0 | 0.00 | 0.88 | 0.86 | 93 | 999.6 |
| 20260905121544 | 48 | 132 | 0.0 | 0.0 | 0.00 | 0.88 | 0.86 | 93 | 999.3 |
| 20260905120039 | 48 | 132 | 0.0 | 0.0 | 0.00 | 0.88 | 0.86 | 93 | 999.0 |
| 20260905114543 | 49 | 132 | 0.0 | 0.0 | 0.00 | 0.88 | 0.86 | 93 | 998.6 |
| 20260905113034 | 50 | 132 | 0.0 | 0.0 | 0.00 | 0.88 | 0.86 | 93 | 998.5 |
| 20260905111536 | 50 | 133 | 0.0 | 0.0 | 0.00 | 0.88 | 0.86 | 94 | 998.2 |
| 20260905110036 | 50 | 142 | 0.0 | 0.0 | 0.00 | 0.88 | 0.86 | 92 | 997.8 |
| 20260905104532 | 50 | 138 | 0.0 | 0.0 | 0.00 | 0.88 | 0.86 | 92 | 997.5 |
| 20260905103030 | 51 | 138 | 0.0 | 0.0 | 0.00 | 0.88 | 0.86 | 91 | 997.2 |
| 20260905101527 | 52 | 138 | 0.0 | 0.0 | 0.00 | 0.88 | 0.86 | 91 | 996.9 |
| 20260905100024 | 52 | 110 | 0.0 | 0.0 | 0.01 | 0.88 | 0.86 | 91 | 996.8 |
| 20260905094524 | 53 | 127 | 0.0 | 0.0 | 0.04 | 0.88 | 0.86 | 91 | 996.7 |
| 20260905093023 | 53 | 146 | 0.0 | 0.0 | 0.04 | 0.88 | 0.86 | 91 | 996.6 |
| 20260905091530 | 53 | 146 | 0.0 | 0.0 | 0.03 | 0.87 | 0.85 | 91 | 996.5 |
| 20260905090026 | 53 | 151 | 0.0 | 0.0 | 0.02 | 0.87 | 0.84 | 89 | 996.5 |
| 20260905084522 | 53 | 286 | 0.0 | 0.0 | 0.00 | 0.84 | 0.82 | 86 | 996.3 |
| 20260905083020 | 53 | 171 | 1.0 | 10.0 | 0.00 | 0.84 | 0.82 | 85 | 996.4 |
| 20260905081519 | 53 | 142 | 0.0 | 15.0 | 0.00 | 0.84 | 0.82 | 85 | 996.3 |
| 20260905080020 | 53 | 117 | 3.0 | 12.0 | 0.00 | 0.84 | 0.82 | 85 | 996.1 |
| 20260905074522 | 53 | 173 | 2.0 | 9.0 | 0.00 | 0.85 | 0.82 | 87 | 996.0 |
| 20260905073018 | 54 | 159 | 1.0 | 12.0 | 0.00 | 0.85 | 0.82 | 87 | 995.7 |
| 20260905071516 | 55 | 142 | 3.0 | 18.0 | 0.00 | 0.85 | 0.82 | 84 | 995.6 |
| 20260905070014 | 55 | 182 | 0.0 | 14.0 | 0.00 | 0.85 | 0.82 | 84 | 995.4 |
| 20260905064512 | 55 | 120 | 6.0 | 18.0 | 0.00 | 0.85 | 0.82 | 83 | 995.4 |
| 20260905063012 | 55 | 96 | 5.0 | 19.0 | 0.00 | 0.85 | 0.82 | 84 | 995.3 |
| 20260905061524 | 56 | 131 | 0.0 | 14.0 | 0.00 | 0.85 | 0.82 | 84 | 995.3 |
| 20260905060011 | 56 | 153 | 3.0 | 18.0 | 0.04 | 0.85 | 0.82 | 84 | 995.3 |
| 20260905054510 | 56 | 141 | 2.0 | 11.0 | 0.05 | 0.85 | 0.82 | 86 | 995.3 |
| 20260905053009 | 56 | 128 | 4.0 | 11.0 | 0.05 | 0.85 | 0.82 | 88 | 995.3 |
| 20260905051517 | 55 | 224 | 3.0 | 13.0 | 0.05 | 0.85 | 0.82 | 89 | 995.2 |
| 20260905050008 | 57 | 167 | 2.0 | 15.0 | 0.01 | 0.81 | 0.78 | 85 | 995.2 |
| 20260905044507 | 58 | 225 | 1.0 | 15.0 | 0.00 | 0.80 | 0.77 | 83 | 995.2 |
| 20260905043005 | 58 | 200 | 1.0 | 21.0 | 0.00 | 0.80 | 0.77 | 83 | 995.4 |
| 20260905041504 | 57 | 217 | 0.0 | 12.0 | 0.00 | 0.80 | 0.77 | 85 | 995.3 |
| 20260905040002 | 57 | 129 | 1.0 | 20.0 | 0.00 | 0.80 | 0.77 | 84 | 995.2 |
| 20260905034615 | 58 | 197 | 2.0 | 13.0 | 0.00 | 0.80 | 0.77 | 87 | 995.2 |
| 20260905033109 | 58 | 232 | 1.0 | 15.0 | 0.00 | 0.80 | 0.77 | 91 | 995.3 |